GW1348 Weather Reports


Display with metric or nautical units.
time (UTC)temp
F
wind
direction
speed
MPH
gust
MPH
rain 1hr
in
rain 24hr
in
rain mn
in
humidity
%
barometer
mb
20260507224549 37 0 0.0 0.0 0.00 0.00 0.00 78 1019.3
20260507224030 38 0 0.0 0.0 0.00 0.00 0.00 78 1019.5
20260507223533 38 0 0.0 0.0 0.00 0.00 0.00 78 1019.4
20260507223058 38 0 0.0 0.0 0.00 0.00 0.00 78 1019.5
20260507222534 38 0 0.0 0.0 0.00 0.00 0.00 77 1019.5
20260507222032 38 0 0.0 0.0 0.00 0.00 0.00 77 1019.4
20260507221544 38 0 0.0 0.0 0.00 0.00 0.00 77 1019.4
20260507221031 38 0 0.0 0.0 0.00 0.00 0.00 76 1019.4
20260507220531 38 0 0.0 0.0 0.00 0.00 0.00 76 1019.4
20260507220042 38 0 0.0 0.0 0.00 0.00 0.00 75 1019.5
20260507215530 38 0 0.0 0.0 0.00 0.00 0.00 75 1019.4
20260507215033 38 0 0.0 0.0 0.00 0.00 0.00 74 1019.5
20260507214547 38 0 0.0 0.0 0.00 0.00 0.00 74 1019.5
20260507214034 38 0 0.0 0.0 0.00 0.00 0.00 74 1019.5
20260507213530 38 0 0.0 0.0 0.00 0.00 0.00 74 1019.4
20260507213045 38 0 0.0 0.0 0.00 0.00 0.00 74 1019.4
20260507212532 38 0 0.0 0.0 0.00 0.00 0.00 74 1019.3
20260507212032 38 0 0.0 0.0 0.00 0.00 0.00 74 1019.3
20260507211555 38 0 0.0 0.0 0.00 0.00 0.00 74 1019.3
20260507211031 38 0 0.0 0.0 0.00 0.00 0.00 74 1019.2
20260507210530 38 0 0.0 0.0 0.00 0.00 0.00 74 1019.3
20260507210104 38 0 0.0 0.0 0.00 0.00 0.00 74 1019.2
20260507205529 39 0 0.0 0.0 0.00 0.00 0.00 74 1019.3
20260507205030 39 0 0.0 0.0 0.00 0.00 0.00 74 1019.3
20260507204547 39 0 0.0 0.0 0.00 0.00 0.00 74 1019.2
20260507204029 39 0 0.0 0.0 0.00 0.00 0.00 74 1019.2
20260507203530 39 0 0.0 0.0 0.00 0.00 0.00 74 1019.2
20260507203040 39 0 0.0 0.0 0.00 0.00 0.00 73 1019.1
20260507202529 39 0 0.0 0.0 0.00 0.00 0.00 73 1019.1
20260507202031 39 0 0.0 0.0 0.00 0.00 0.00 73 1018.9
20260507201545 39 0 0.0 0.0 0.00 0.00 0.00 72 1019.0
20260507201032 39 0 0.0 0.0 0.00 0.00 0.00 72 1019.0
20260507200529 39 0 0.0 0.0 0.00 0.00 0.00 72 1019.0
20260507200052 39 0 0.0 0.0 0.00 0.00 0.00 72 1019.0
20260507195532 39 0 0.0 0.0 0.00 0.00 0.00 72 1018.9
20260507195029 39 0 0.0 0.0 0.00 0.00 0.00 71 1018.8
20260507194550 39 0 0.0 0.0 0.00 0.00 0.00 71 1018.7
20260507194030 40 0 0.0 0.0 0.00 0.00 0.00 71 1018.8
20260507193530 39 0 0.0 0.0 0.00 0.00 0.00 72 1018.7
20260507193047 40 0 0.0 1.0 0.00 0.00 0.00 72 1018.6
20260507192529 39 0 0.0 2.0 0.00 0.00 0.00 72 1018.5
20260507192029 40 282 0.0 2.0 0.00 0.00 0.00 72 1018.6
20260507191547 40 265 0.0 1.0 0.00 0.00 0.00 71 1018.5
20260507191032 40 0 0.0 0.0 0.00 0.00 0.00 71 1018.4
20260507190530 40 0 0.0 0.0 0.00 0.00 0.00 71 1018.4
20260507190056 40 0 0.0 0.0 0.00 0.00 0.00 71 1018.4
20260507185532 40 0 0.0 0.0 0.00 0.00 0.00 71 1018.4
20260507185034 40 0 0.0 0.0 0.00 0.00 0.00 71 1018.3
20260507184546 40 0 0.0 0.0 0.00 0.00 0.00 71 1018.2
20260507184032 40 0 0.0 0.0 0.00 0.00 0.00 71 1018.2
20260507183531 40 0 0.0 0.0 0.00 0.00 0.00 70 1018.2
20260507183050 40 0 0.0 0.0 0.00 0.00 0.00 71 1018.3
20260507182530 40 0 0.0 0.0 0.00 0.00 0.00 70 1018.2
20260507182030 40 0 0.0 0.0 0.00 0.00 0.00 70 1018.3
20260507181544 40 0 0.0 0.0 0.00 0.00 0.00 70 1018.2
20260507181032 40 0 0.0 0.0 0.00 0.00 0.00 70 1018.2
20260507180530 40 0 0.0 1.0 0.00 0.00 0.00 69 1018.3
20260507180046 40 0 0.0 1.0 0.00 0.00 0.00 69 1018.3
20260507175530 41 0 0.0 1.0 0.00 0.00 0.00 68 1018.3
20260507175030 41 243 0.0 1.0 0.00 0.00 0.00 69 1018.3
20260507174554 41 0 0.0 1.0 0.00 0.00 0.00 70 1018.3
20260507174030 41 0 0.0 0.0 0.00 0.00 0.00 69 1018.3
20260507173530 41 0 0.0 0.0 0.00 0.00 0.00 68 1018.2
20260507173048 41 0 0.0 0.0 0.00 0.00 0.00 68 1018.1
20260507172530 41 0 0.0 0.0 0.00 0.00 0.00 67 1018.1
20260507172029 42 0 0.0 1.0 0.00 0.00 0.00 67 1018.1
20260507171542 42 0 0.0 1.0 0.00 0.00 0.00 66 1017.8
20260507171032 43 0 0.0 5.0 0.00 0.00 0.00 64 1017.8
20260507170531 43 0 0.0 5.0 0.00 0.00 0.00 62 1017.8
20260507170048 44 0 1.0 6.0 0.00 0.00 0.00 60 1017.9
20260507165531 44 51 1.0 6.0 0.00 0.00 0.00 59 1017.9
20260507165029 44 154 1.0 6.0 0.00 0.00 0.00 59 1018.0
20260507164603 45 37 1.0 3.0 0.00 0.00 0.00 59 1018.0
20260507164030 45 0 0.0 9.0 0.00 0.00 0.00 58 1017.9
20260507163533 45 77 2.0 9.0 0.00 0.00 0.00 55 1017.8
20260507163047 46 136 2.0 9.0 0.00 0.00 0.00 55 1017.7
20260507162530 47 276 1.0 9.0 0.00 0.00 0.00 52 1017.7
20260507162030 48 27 3.0 8.0 0.00 0.00 0.00 52 1017.8
20260507161556 48 0 1.0 7.0 0.00 0.00 0.00 53 1017.8
20260507161030 47 141 2.0 7.0 0.00 0.00 0.00 53 1017.8
20260507160530 48 151 2.0 7.0 0.00 0.00 0.00 51 1017.8
20260507160044 48 142 0.0 8.0 0.00 0.00 0.00 54 1017.7
20260507155529 47 155 2.0 8.0 0.00 0.00 0.00 54 1017.8
20260507155030 47 278 3.0 8.0 0.00 0.00 0.00 53 1017.7
20260507154549 48 158 2.0 7.0 0.00 0.00 0.00 53 1017.6
20260507154030 48 333 2.0 5.0 0.00 0.00 0.00 52 1017.6
20260507153530 48 40 1.0 10.0 0.00 0.00 0.00 54 1017.6
20260507153045 48 278 3.0 10.0 0.00 0.00 0.00 53 1017.6
20260507152530 48 44 2.0 9.0 0.00 0.00 0.00 54 1017.6
20260507152031 48 0 2.0 8.0 0.00 0.00 0.00 55 1017.5
20260507151540 48 68 3.0 8.0 0.00 0.00 0.00 54 1017.4
20260507151030 49 330 1.0 5.0 0.00 0.00 0.00 56 1017.3
20260507150530 48 155 2.0 5.0 0.00 0.00 0.00 57 1017.4
20260507150047 48 131 2.0 7.0 0.00 0.00 0.00 56 1017.3
20260507145529 48 64 2.0 7.0 0.00 0.00 0.00 57 1017.3
20260507145032 48 351 2.0 6.0 0.00 0.00 0.00 58 1017.2
20260507144547 49 37 2.0 12.0 0.00 0.00 0.00 57 1017.2
20260507144029 48 359 2.0 12.0 0.00 0.00 0.00 59 1017.1
20260507143529 47 114 1.0 10.0 0.00 0.00 0.00 59 1017.2
20260507143049 47 29 2.0 10.0 0.00 0.00 0.00 60 1017.1
20260507142530 49 25 2.0 5.0 0.00 0.00 0.00 56 1017.2
20260507142031 49 349 2.0 5.0 0.00 0.00 0.00 56 1017.2
20260507141540 49 57 1.0 7.0 0.00 0.00 0.00 57 1017.2
20260507141032 48 88 2.0 13.0 0.00 0.00 0.00 56 1017.3
20260507140529 48 88 2.0 13.0 0.00 0.00 0.00 56 1017.2
20260507140046 48 158 3.0 13.0 0.00 0.00 0.00 56 1017.1
20260507135529 49 120 2.0 12.0 0.00 0.00 0.00 55 1017.1
20260507135029 48 202 3.0 6.0 0.00 0.00 0.00 58 1017.1
20260507134545 48 27 1.0 8.0 0.00 0.00 0.00 58 1017.1
20260507134031 48 60 2.0 8.0 0.00 0.00 0.00 58 1017.0
20260507133531 49 349 2.0 4.0 0.00 0.00 0.00 58 1016.8
20260507133048 49 107 1.0 5.0 0.00 0.00 0.00 61 1017.1
20260507132533 48 25 1.0 7.0 0.00 0.00 0.00 61 1017.1
20260507132030 48 335 0.0 7.0 0.00 0.00 0.00 62 1017.1
20260507131541 48 200 2.0 7.0 0.00 0.00 0.00 61 1017.1
20260507131030 47 82 0.0 7.0 0.00 0.00 0.00 64 1017.0
20260507130533 47 43 1.0 5.0 0.00 0.00 0.00 66 1016.8
20260507130043 46 63 1.0 5.0 0.00 0.00 0.00 67 1016.9
20260507125531 46 0 1.0 7.0 0.00 0.00 0.00 67 1017.0
20260507125029 46 8 1.0 7.0 0.00 0.00 0.00 68 1016.8
20260507124540 46 155 2.0 8.0 0.00 0.00 0.00 65 1016.8
20260507124030 47 46 2.0 8.0 0.00 0.00 0.00 59 1016.6
20260507123529 46 131 2.0 6.0 0.00 0.00 0.00 57 1016.8
20260507123044 46 112 2.0 6.0 0.00 0.00 0.00 58 1016.7
20260507122535 45 56 3.0 7.0 0.00 0.00 0.00 59 1016.6
20260507122029 45 126 1.0 7.0 0.00 0.00 0.00 59 1016.6
20260507121542 45 58 2.0 5.0 0.00 0.00 0.00 59 1016.7
20260507121030 46 44 1.0 4.0 0.00 0.00 0.00 59 1016.6
20260507120530 46 141 2.0 4.0 0.00 0.00 0.00 62 1016.6
20260507120041 46 72 1.0 4.0 0.00 0.00 0.00 57 1016.4
20260507115532 46 142 0.0 5.0 0.00 0.00 0.00 60 1016.5
20260507115030 45 0 0.0 6.0 0.00 0.00 0.00 61 1016.5
20260507114559 45 26 2.0 6.0 0.00 0.00 0.00 60 1016.5
20260507114030 45 134 1.0 6.0 0.00 0.00 0.00 61 1016.4
20260507113531 45 26 1.0 8.0 0.00 0.00 0.00 60 1016.4
20260507113104 46 0 1.0 8.0 0.00 0.00 0.00 60 1016.4
20260507112532 46 58 2.0 8.0 0.00 0.00 0.00 59 1016.3
20260507112032 46 79 1.0 13.0 0.00 0.00 0.00 57 1016.3
20260507111545 46 123 2.0 13.0 0.00 0.00 0.00 54 1016.2
20260507111029 46 79 3.0 13.0 0.00 0.00 0.00 54 1016.1
20260507110529 46 60 0.0 4.0 0.00 0.00 0.00 61 1016.0
20260507110047 46 76 2.0 5.0 0.00 0.00 0.00 57 1015.9
20260507105530 46 285 1.0 5.0 0.00 0.00 0.00 56 1015.8
20260507105032 45 46 1.0 4.0 0.00 0.00 0.00 54 1015.8
20260507104543 45 0 0.0 5.0 0.00 0.00 0.00 55 1015.9
20260507104031 44 0 1.0 5.0 0.00 0.00 0.00 58 1015.9
20260507103531 43 167 0.0 5.0 0.00 0.00 0.00 62 1015.8
20260507103053 43 29 2.0 6.0 0.00 0.00 0.00 65 1015.8
20260507102530 44 23 2.0 6.0 0.00 0.00 0.00 61 1015.7
20260507102031 44 34 1.0 6.0 0.00 0.00 0.00 56 1015.7
20260507101547 45 333 0.0 6.0 0.00 0.00 0.00 56 1015.7
20260507101032 45 18 1.0 6.0 0.00 0.00 0.00 55 1015.6
20260507100529 45 48 2.0 6.0 0.00 0.00 0.00 55 1015.5
20260507100045 44 293 2.0 6.0 0.00 0.00 0.00 57 1015.5
20260507095529 42 108 0.0 3.0 0.00 0.00 0.00 71 1015.4
20260507095120 41 0 1.0 6.0 0.00 0.00 0.00 70 1015.4
20260507094543 41 59 1.0 6.0 0.00 0.00 0.00 71 1015.5
20260507094029 42 103 1.0 4.0 0.00 0.00 0.00 70 1015.4
20260507093529 42 0 1.0 3.0 0.00 0.00 0.00 70 1015.6
20260507093041 41 61 0.0 3.0 0.00 0.00 0.00 71 1015.4
20260507092531 42 71 1.0 3.0 0.00 0.00 0.00 71 1015.4
20260507092029 42 0 0.0 4.0 0.00 0.00 0.00 72 1015.4
20260507091543 42 44 1.0 4.0 0.00 0.00 0.00 71 1015.2
20260507091031 42 0 0.0 4.0 0.00 0.00 0.00 71 1015.2
20260507090530 42 0 0.0 6.0 0.00 0.00 0.00 72 1015.2
20260507090045 42 14 1.0 6.0 0.00 0.00 0.00 71 1015.3
20260507085531 42 0 2.0 7.0 0.00 0.00 0.00 70 1015.2
20260507085030 42 23 2.0 7.0 0.00 0.00 0.00 70 1015.2
20260507084546 43 359 0.0 3.0 0.00 0.00 0.00 71 1015.2
20260507084030 42 0 0.0 3.0 0.00 0.00 0.00 71 1015.1
20260507083532 43 0 0.0 4.0 0.00 0.00 0.00 68 1015.2
20260507083041 43 98 1.0 4.0 0.00 0.00 0.00 68 1015.0
20260507082529 44 30 1.0 4.0 0.00 0.00 0.00 68 1015.0
20260507082028 44 58 2.0 4.0 0.00 0.00 0.00 68 1014.9
20260507081553 44 46 2.0 5.0 0.00 0.00 0.00 67 1014.9
20260507081030 43 125 1.0 6.0 0.00 0.00 0.00 69 1014.9
20260507080530 44 79 1.0 6.0 0.00 0.00 0.00 69 1014.8
20260507080044 43 60 1.0 3.0 0.00 0.00 0.00 68 1014.7
20260507075531 43 51 0.0 4.0 0.00 0.00 0.00 69 1014.8
20260507075030 43 109 1.0 4.0 0.00 0.00 0.00 68 1014.6
20260507074545 43 119 1.0 4.0 0.00 0.00 0.00 68 1014.6
20260507074032 42 246 2.0 5.0 0.00 0.00 0.00 69 1014.6
20260507073530 42 96 1.0 5.0 0.00 0.00 0.00 68 1014.5
20260507073042 43 38 1.0 4.0 0.00 0.00 0.00 71 1014.5
20260507072532 42 349 1.0 4.0 0.00 0.00 0.00 71 1014.6
20260507072033 41 108 1.0 4.0 0.00 0.00 0.00 68 1014.5
20260507071543 41 19 1.0 4.0 0.00 0.00 0.00 69 1014.5
20260507071033 42 0 1.0 4.0 0.00 0.00 0.00 68 1014.5
20260507070529 42 0 1.0 5.0 0.00 0.00 0.00 63 1014.5
20260507070045 41 0 2.0 5.0 0.00 0.00 0.00 63 1014.4
20260507065532 42 122 1.0 5.0 0.00 0.00 0.00 64 1014.4
20260507065031 41 126 1.0 5.0 0.00 0.00 0.00 64 1014.2
20260507064541 40 135 1.0 7.0 0.00 0.00 0.00 66 1014.3
20260507064029 40 104 3.0 7.0 0.00 0.00 0.00 65 1014.3
20260507063531 40 163 2.0 6.0 0.00 0.00 0.00 65 1014.3
20260507063043 40 126 3.0 6.0 0.00 0.00 0.00 66 1014.4
20260507062531 40 259 1.0 7.0 0.00 0.00 0.00 67 1014.2
20260507062032 39 150 3.0 8.0 0.00 0.00 0.00 68 1014.2
20260507061544 39 79 3.0 8.0 0.00 0.00 0.00 67 1014.2
20260507061028 39 117 2.0 6.0 0.00 0.00 0.00 69 1014.1
20260507060530 39 134 1.0 7.0 0.00 0.00 0.00 70 1014.1
20260507060044 38 145 4.0 7.0 0.00 0.00 0.00 70 1014.2
20260507055531 38 129 3.0 7.0 0.00 0.00 0.00 70 1014.0
20260507055031 38 157 2.0 6.0 0.00 0.00 0.00 69 1014.1
20260507054541 38 152 3.0 7.0 0.00 0.00 0.00 70 1014.0
20260507054030 38 155 2.0 7.0 0.00 0.00 0.00 72 1013.9
20260507053531 38 129 3.0 7.0 0.00 0.00 0.00 71 1014.0
20260507053041 38 136 3.0 7.0 0.00 0.00 0.00 71 1013.9
20260507052530 38 101 4.0 7.0 0.00 0.00 0.00 71 1013.9
20260507052031 38 236 2.0 4.0 0.00 0.00 0.00 74 1013.9
20260507051541 37 152 1.0 4.0 0.00 0.00 0.00 75 1013.7
20260507051030 37 0 1.0 3.0 0.00 0.00 0.00 77 1013.6
20260507050531 36 0 1.0 4.0 0.00 0.00 0.00 78 1013.6
20260507050047 35 130 1.0 4.0 0.00 0.00 0.00 78 1013.7
20260507045531 35 0 1.0 3.0 0.00 0.00 0.00 79 1013.6
20260507045028 35 0 0.0 2.0 0.00 0.00 0.00 80 1013.6
20260507044539 35 111 0.0 3.0 0.00 0.00 0.00 80 1013.5
20260507044028 35 0 1.0 3.0 0.00 0.00 0.00 80 1013.6
20260507043531 36 129 0.0 4.0 0.00 0.00 0.00 80 1013.5
20260507043055 36 220 1.0 4.0 0.00 0.00 0.00 79 1013.5
20260507042530 36 220 1.0 4.0 0.00 0.00 0.00 79 1013.4
20260507042029 37 148 1.0 4.0 0.00 0.00 0.00 78 1013.3
20260507041540 37 127 2.0 4.0 0.00 0.00 0.00 78 1013.4
20260507041030 37 158 1.0 3.0 0.00 0.00 0.00 78 1013.3
20260507040531 37 141 1.0 2.0 0.00 0.00 0.00 79 1013.4
20260507040041 36 0 0.0 2.0 0.00 0.00 0.00 81 1013.4
20260507035531 35 0 0.0 2.0 0.00 0.00 0.00 83 1013.3
20260507035030 35 0 0.0 2.0 0.00 0.00 0.00 83 1013.4
20260507034542 34 0 0.0 3.0 0.00 0.00 0.00 84 1013.3
20260507034032 34 144 0.0 3.0 0.00 0.00 0.00 85 1013.3
20260507033529 33 114 1.0 4.0 0.00 0.00 0.00 85 1013.2
20260507033043 33 185 1.0 4.0 0.00 0.00 0.00 86 1013.2
20260507032533 32 146 1.0 3.0 0.00 0.00 0.00 87 1013.2
20260507032032 32 141 1.0 3.0 0.00 0.00 0.00 88 1013.2
20260507031548 32 142 1.0 3.0 0.00 0.00 0.00 89 1013.3
20260507031033 31 254 0.0 3.0 0.00 0.00 0.00 90 1013.1
20260507030533 31 13 1.0 3.0 0.00 0.00 0.00 90 1013.2
20260507030042 31 139 1.0 4.0 0.00 0.00 0.00 90 1013.2
20260507025530 31 179 1.0 4.0 0.00 0.00 0.00 90 1013.1
20260507025035 31 0 0.0 3.0 0.00 0.00 0.00 90 1013.2
20260507024552 31 132 1.0 4.0 0.00 0.00 0.00 90 1013.2
20260507024034 31 127 1.0 4.0 0.00 0.00 0.00 90 1013.0
20260507023533 31 138 1.0 4.0 0.00 0.00 0.00 90 1013.1
20260507023052 31 212 0.0 4.0 0.00 0.00 0.00 90 1013.1
20260507022531 31 167 1.0 4.0 0.00 0.00 0.00 90 1013.1
20260507022035 31 136 1.0 3.0 0.00 0.00 0.00 91 1013.1
20260507021543 31 129 1.0 4.0 0.00 0.00 0.00 91 1013.0
20260507021033 31 0 1.0 4.0 0.00 0.00 0.00 91 1013.0
20260507020531 31 0 1.0 4.0 0.00 0.00 0.00 92 1013.0
20260507020057 31 169 1.0 4.0 0.00 0.00 0.00 92 1013.0
20260507015531 31 157 1.0 5.0 0.00 0.00 0.00 92 1013.1
20260507015031 31 164 1.0 5.0 0.00 0.00 0.00 92 1013.1
20260507014541 31 147 1.0 3.0 0.00 0.00 0.00 92 1013.1
20260507014031 31 245 0.0 3.0 0.00 0.00 0.00 92 1013.1
20260507013530 31 186 1.0 3.0 0.00 0.00 0.00 91 1013.1
20260507013047 31 143 1.0 3.0 0.00 0.00 0.00 92 1013.0
20260507012535 31 151 1.0 2.0 0.00 0.00 0.00 92 1013.0
20260507012031 31 151 1.0 3.0 0.00 0.00 0.00 92 1012.9
20260507011547 31 137 0.0 4.0 0.00 0.00 0.00 91 1012.8
20260507011031 31 141 1.0 4.0 0.00 0.00 0.00 91 1012.9
20260507010530 31 154 0.0 3.0 0.00 0.00 0.00 91 1012.9
20260507010044 32 138 1.0 3.0 0.00 0.00 0.00 91 1012.9
20260507005532 32 141 1.0 3.0 0.00 0.00 0.00 91 1013.0
20260507005031 32 128 0.0 6.0 0.00 0.00 0.00 91 1012.9
20260507004544 32 149 1.0 6.0 0.00 0.00 0.00 91 1012.9
20260507004031 32 160 1.0 5.0 0.00 0.00 0.00 91 1012.9
20260507003532 32 159 2.0 5.0 0.00 0.00 0.00 92 1012.9
20260507003049 32 166 1.0 4.0 0.00 0.00 0.00 92 1012.9
20260507002530 32 152 1.0 4.0 0.00 0.00 0.00 92 1012.8
20260507002031 32 146 0.0 2.0 0.00 0.00 0.00 92 1012.8
20260507001606 32 224 0.0 3.0 0.00 0.00 0.00 92 1012.8
20260507001035 32 0 0.0 3.0 0.00 0.00 0.00 92 1012.8
20260507000530 32 140 0.0 1.0 0.00 0.00 0.00 92 1012.8
20260507000043 32 0 0.0 2.0 0.00 0.00 0.00 92 1012.8
20260506235534 32 0 0.0 2.0 0.00 0.00 0.00 92 1012.8
20260506235031 32 0 0.0 3.0 0.00 0.00 0.00 92 1012.8
20260506234550 32 0 0.0 3.0 0.00 0.00 0.00 92 1012.8
20260506234032 32 0 0.0 4.0 0.00 0.00 0.00 92 1012.7
20260506233532 32 0 0.0 4.0 0.00 0.00 0.00 93 1012.7
20260506233043 32 151 1.0 5.0 0.00 0.00 0.00 93 1012.6
20260506232531 32 248 0.0 5.0 0.00 0.00 0.00 92 1012.6
20260506232031 32 148 0.0 4.0 0.00 0.00 0.00 93 1012.5
20260506231543 31 249 0.0 4.0 0.00 0.00 0.00 93 1012.5
20260506231029 31 201 0.0 2.0 0.00 0.00 0.00 92 1012.4
20260506230532 31 131 1.0 2.0 0.00 0.00 0.00 93 1012.5
20260506230053 31 200 0.0 3.0 0.00 0.00 0.00 93 1012.6
20260506225530 31 181 0.0 3.0 0.00 0.00 0.00 92 1012.7
20260506225029 31 150 1.0 2.0 0.00 0.00 0.00 92 1012.7